Regional Weather Roundup
Issued by NWS

Home | Current Version | Previous Version | Text Only | Print | Product List | Glossary Off
Versions: 1 2 3 4 5 6 7 8 9 10 11 12 13 14 15 16 17 18 19 20 21 22 23 24 25 26 27 28 29 30 31 32 33 34 35 36 37 38 39 40 41 42 43 44 45 46 47 48 49 50

000
ASUS43 KLOT 010900
RWRIL

ILLINOIS REGIONAL WEATHER ROUNDUP
NATIONAL WEATHER SERVICE CHICAGO/ROMEOVILLE IL
400 AM CDT FRI AUG 01 2014

NOTE: "FAIR" INDICATES FEW OR NO CLOUDS BELOW 12,000 FEET WITH NO
SIGNIFICANT WEATHER AND/OR OBSTRUCTIONS TO VISIBILITY.

* THESE STATIONS ARE NOT UNDER NWS QUALITY CONTROL. THEY ALSO MAY NOT
  REPORT WEATHER SUCH AS PRECIPITATION OR FOG.

ILZ001-002-007-009-015-016-024-011000-
NORTHWEST ILLINOIS

CITY           SKY/WX    TMP DP  RH WIND       PRES   REMARKS
MOLINE         CLOUDY    66  62  87 W5        30.06R
STERLING*      PTCLDY    59  55  88 CALM      30.07R
$$

ILZ003-004-008-010-011-017-018-011000-
NORTH CENTRAL ILLINOIS

CITY           SKY/WX    TMP DP  RH WIND       PRES   REMARKS
ROCKFORD       MOCLDY    62  57  83 CALM      30.07S
$$

ILZ005-006-012>014-019>023-011000-
NORTHEAST ILLINOIS

CITY           SKY/WX    TMP DP  RH WIND       PRES   REMARKS
CHICAGO-OHARE  PTCLDY    64  57  78 W6        30.05S
CHICAGO-MIDWAY PTCLDY    68  63  84 SW7       30.06R
AURORA         PTCLDY    59  56  89 CALM      30.07S FOG
WAUKEGAN       CLEAR     64  57  78 VRB3      30.04R
DUPAGE AIRPORT CLEAR     61  59  93 S3        30.06S FOG
WHEELING       CLEAR     65  58  78 CALM      30.06S
NORTHERLY ISL    N/A     70  61  73 W6          N/A
$$

LMZ740>746-011000-
SOUTHERN LAKE MICHIGAN

STATION/POSITION SKY/WX   TEMP    WIND        PRES    VSBY  WAVE
                          AIR SEA DIR/SP/G                  HT/PER
                          (F)     (DEG/KT/KT) (MB)    (MI)  (FT/S)
SOUTHERN BUOY              65 62  230/  8/ 10 1016.7R         0
WAUKEGAN HARBOR            67     270/  9/ 11   N/A
HARRISON CRIB              72     240/  8/  9   N/A
BURNHAM HARBOR             70     240/  5/  6   N/A
CALUMET HARBOR             68     230/  3/  5 1016.5S
MICHIGAN CITY              68     180/  7/  9   N/A
MICHIGAN CITY 6N           69 69  210/  6/  8   N/A           1
ST. JOSEPH                 69 69  190/  8/ 10   N/A           1
$$

ILZ025>027-034>036-040-047-049-050-058-095>099-011000-
WEST-CENTRAL ILLINOIS

CITY           SKY/WX    TMP DP  RH WIND       PRES   REMARKS
QUINCY         CLOUDY    65  59  81 SE5       30.06S
GALESBURG*     LGT RAIN  64  62  94 CALM      30.07S
MACOMB*        MOCLDY    63  62  96 CALM      30.09R
$$

ILZ028>032-037-038-041>044-048-051>054-059>061-011000-
CENTRAL ILLINOIS

CITY           SKY/WX    TMP DP  RH WIND       PRES   REMARKS
DECATUR        PTCLDY    61  58  90 CALM      30.08R
PEORIA         CLOUDY    68  62  81 CALM      30.07S
SPRINGFIELD    PTCLDY    61  59  93 CALM      30.08S
TAYLORVILLE    NOT AVBL
$$

ILZ033-039-045-046-055>057-062-063-011000-
EAST-CENTRAL ILLINOIS

CITY           SKY/WX    TMP DP  RH WIND       PRES   REMARKS
CHAMPAIGN      MOCLDY    63  61  93 CALM      30.08S
MATTOON        CLEAR     67  61  81 SW5       30.07S
$$

ILZ079-100>102-011000-
SOUTHWEST ILLINOIS

CITY           SKY/WX    TMP DP  RH WIND       PRES   REMARKS
BELLEVILLE     CLOUDY    63  62  99 CALM      30.06S FOG
CAHOKIA*       CLEAR     62  60  93 CALM      30.07R
SPARTA*        CLEAR     64  63  94 CALM      30.08S
$$

ILZ064>066-069>071-074>076-080>082-084>086-088>090-092>094-011000-
SOUTH-CENTRAL ILLINOIS

CITY           SKY/WX    TMP DP  RH WIND       PRES   REMARKS
CARBONDALE     FOG       60  58  92 CALM      30.07S VSB 1/2
MT. VERNON     CLEAR     57  54  88 CALM      30.08S
SALEM*         FOG       62  62  98 CALM      30.08S VSB 1/4
$$

ILZ067-068-072-073-078-083-087-091-011000-
SOUTHEAST ILLINOIS

CITY           SKY/WX    TMP DP  RH WIND       PRES   REMARKS
LAWRENCEVILLE  PTCLDY    63  60  90 CALM      30.08R FOG
HARRISBURG*    FOG       62  62 100 CALM      30.08S VSB 1/4
ROBINSON*      FOG       58  58  98 CALM      30.09S VSB 1/4
$$

ABBREVIATIONS USED IN REMARKS
   TC - TEMPERATURE IN CELSIUS
  WCI - WIND CHILL INDEX
   HX - HEAT INDEX
  VSB - VISIBILITY
$$




USA.gov is the U.S. government's official web portal to all federal, state and local government web resources and services.